Location: Friaudour
(46.0460°N, 1.2873°E)
Time: 04:41:07
(UTC+00:00)

Cosmos 1741 Rocket - Pass Details

Date: 14 July 2020
Orbit: 761 x 783 km, 74.0° (Epoch: 06 August)

Event Time Altitude Azimuth Distance (km) Brightness Sun altitude
Exits shadow 03:04:19 11° 200° (SSW) 2,186 5.8 -10.6°
Maximum altitude 03:09:15 90° 128° (SE) 769 4.0 -10.0°
Drops below altitude 10° 03:14:30 10° 22° (NNE) 2,310 7.7 -9.4°
Sets 03:16:53 0° 22° (NNE) 3,243 8.7 -9.1°
